Temperature
23 20 19 19 20 20 20 20 20 21 21 21 20 20 19 20 20 20 20 20 20 19 19 18 18 17 17 16 15 15 14 14 14 13 13 13 13 13 13 13 13 13 13 13
20 20 20 21 21 21 21 21 20 21 22 21 20 20 20 19 20 21 20 20 20 19 18 18 17 17 17 16 15 15 14 14 13 13 13 13 13 12 13 13 13 13 13 13
20 21 22 22 21 21 21 20 21 21 22 22 21 20 20 19 20 21 21 21 20 19 18 18 17 17 17 16 15 15 14 14 13 13 13 13 13 13 13 13 12 12 12 12
20 21 22 22 22 21 21 22 22 22 20 19 21 18 19 19 19 19 20 20 20 19 19 18 18 17 17 16 15 15 14 14 13 13 13 13 12 12 12 12 12 12 12 12
20 21 22 22 22 22 21 23 23 22 20 19 19 19 18 19 19 18 19 20 20 20 19 18 18 17 17 16 16 15 14 14 13 13 13 12 12 12 12 12 12 12 12 12
21 22 22 22 23 23 22 21 20 17 17 18 19 18 18 17 18 19 18 20 20 20 19 19 18 17 17 16 16 15 14 14 13 13 13 13 12 12 12 12 12 12 12 12
21 22 23 23 23 23 20 18 18 18 17 17 19 19 18 19 19 19 19 20 20 20 19 18 18 17 17 16 16 15 15 14 14 13 13 13 12 12 12 12 12 12 12 12
20 21 22 23 22 21 21 18 18 19 18 18 20 19 18 20 20 21 21 21 20 19 19 19 18 18 17 16 16 15 15 14 14 14 13 13 13 12 12 12 12 12 11 11
20 20 23 24 24 22 21 19 18 17 18 18 18 19 20 20 19 19 19 20 20 20 19 19 18 18 17 17 16 16 15 15 14 14 13 13 13 12 12 12 12 12 11 11
20 21 22 23 23 23 21 19 16 18 18 18 19 19 17 18 18 18 18 19 20 20 19 19 18 18 17 17 16 16 15 15 15 14 14 13 13 12 12 12 12 12 11 11
20 20 21 22 22 21 22 21 17 15 16 17 18 18 18 18 18 18 18 20 20 20 20 19 19 18 18 17 16 16 16 15 15 14 14 13 13 13 12 12 12 12 11 11
20 17 18 20 21 21 21 21 18 18 18 16 16 17 19 18 19 20 20 21 21 21 20 19 19 18 18 17 17 16 16 15 15 15 14 14 13 13 13 12 12 12 12 11
20 18 18 18 19 21 22 21 18 16 16 15 16 18 19 19 19 21 21 21 21 21 20 19 19 18 18 17 17 17 16 16 15 15 14 14 14 13 13 13 12 12 12 12
19 18 18 19 19 19 21 21 20 17 16 17 18 18 20 19 19 20 21 21 21 21 20 20 19 19 18 18 17 17 16 16 15 15 15 14 14 14 13 13 13 12 12 12
19 19 20 19 20 20 20 21 20 19 17 17 19 19 20 19 18 20 21 21 21 20 20 20 19 19 18 18 17 17 17 16 16 15 15 15 14 14 14 13 13 13 13 12
18 20 21 21 21 21 21 20 20 19 19 18 19 19 19 20 21 21 21 21 21 21 20 20 20 19 19 18 18 17 17 17 16 16 16 15 15 15 14 14 14 13 13 13
17 18 19 18 19 21 20 20 20 19 19 19 19 19 20 19 19 21 21 21 21 21 21 20 20 19 19 18 18 18 17 17 17 16 16 16 15 15 15 14 14 14 13 13
17 17 16 17 19 19 20 20 20 20 20 19 20 19 19 20 22 22 22 22 21 21 21 20 20 19 19 19 18 18 18 17 17 17 16 16 16 15 15 15 15 14 14 14
17 17 16 16 18 18 20 21 21 20 20 20 20 20 21 22 21 21 22 22 21 21 21 20 20 19 19 19 18 18 18 17 17 17 16 16 16 16 15 15 15 14 14 14
16 16 16 16 18 18 20 21 22 21 21 21 20 19 20 19 17 18 21 21 21 21 20 20 19 19 19 19 18 18 18 17 17 17 17 16 16 16 15 15 15 15 14 14
18 17 16 16 17 17 19 21 22 21 20 22 22 22 21 20 20 22 21 21 21 20 20 19 19 19 19 18 18 18 18 17 17 17 16 16 16 16 15 15 15 15 14 14
17 16 15 14 16 18 20 22 21 21 23 23 23 23 23 23 23 22 21 21 20 20 19 19 19 18 18 18 18 18 17 17 17 17 16 16 16 16 15 15 15 15 15 14
16 17 16 16 18 20 22 23 25 25 24 24 24 24 24 23 22 21 21 20 20 20 19 19 19 18 18 18 18 17 17 17 17 16 16 16 16 15 15 15 15 15 15 14
16 17 16 16 17 19 22 24 25 25 25 25 25 24 24 23 22 21 21 20 20 19 19 19 18 18 18 17 17 17 17 16 16 16 16 16 15 15 15 15 14 14 14 14
17 18 17 17 18 20 22 23 24 25 25 24 24 24 23 23 22 21 21 20 20 19 19 18 18 18 17 17 17 17 16 16 16 16 15 15 15 14 14 14 14 13 13 13
16 18 17 17 19 18 22 24 24 24 24 24 23 23 23 23 22 21 21 20 19 19 18 18 17 17 17 16 16 16 16 15 15 15 14 14 13 13 13 13 13 13 13 13
Wind_Speed
6 5 5 7 8 8 7 5 4 5 6 8 10 10 9 11 9 9 8 7 8 8 7 7 7 7 6 5 5 4 3 2 2 2 2 3 3 3 4 3 5 6 6 6
4 4 7 9 10 9 6 4 2 3 6 8 8 9 8 11 12 10 10 10 10 8 8 7 7 6 6 6 5 4 4 2 1 0 0 1 2 2 2 3 4 6 6 6
7 5 9 9 7 6 3 5 6 6 2 3 3 5 3 5 7 7 8 9 10 13 12 9 8 7 6 6 6 5 4 3 1 1 1 2 3 3 4 4 4 5 6 5
2 2 6 7 6 7 4 7 7 5 4 3 3 3 5 5 7 8 7 8 10 11 10 9 9 8 7 7 6 5 5 3 2 1 2 1 1 2 3 3 4 5 6 5
4 4 5 5 5 7 8 6 4 3 3 2 1 3 6 3 7 9 8 9 10 11 11 11 10 9 8 7 6 6 5 3 2 1 1 1 0 2 2 3 4 5 5 5
3 2 4 5 3 5 5 5 7 6 5 2 5 6 5 6 9 9 8 9 10 10 10 10 9 8 7 6 6 5 5 3 3 1 1 1 1 1 2 3 4 4 4 4
2 2 1 4 4 2 6 6 4 4 4 6 4 5 8 7 7 9 10 10 10 10 10 9 9 8 8 7 7 6 5 4 4 2 1 2 2 2 1 2 2 3 3 3
3 2 3 4 6 6 5 9 7 4 4 5 2 4 5 3 4 6 8 9 9 10 9 10 10 10 9 9 8 7 6 5 5 4 3 2 3 2 2 2 2 2 3 4
5 3 2 1 3 7 6 4 7 6 2 3 4 3 4 1 3 5 7 8 10 10 10 10 10 9 9 9 8 8 7 6 5 5 4 3 3 2 2 3 2 3 3 4
6 3 1 1 5 4 6 8 6 4 2 2 4 4 6 8 9 8 8 10 10 10 9 9 9 9 8 8 7 7 7 7 6 5 4 3 3 3 3 2 3 3 4 4
4 5 0 2 3 6 3 3 5 4 5 5 3 7 7 11 11 10 11 10 10 10 10 10 9 8 8 7 7 6 6 6 5 5 4 3 3 3 2 2 2 2 3 3
4 5 2 5 5 6 6 6 7 4 3 4 4 7 6 9 9 9 10 9 9 10 10 9 9 8 7 7 6 6 7 7 6 6 4 3 3 1 2 2 2 2 2 3
6 6 3 5 6 1 3 6 7 6 5 4 4 7 4 4 6 7 8 9 8 9 9 8 8 8 8 7 7 6 7 7 7 6 5 3 2 2 3 3 2 2 2 3
6 5 7 8 7 6 6 7 7 7 5 5 7 7 4 6 7 7 8 9 8 9 9 9 8 8 8 8 7 7 7 7 7 6 5 4 4 4 4 3 2 2 2 3
6 5 7 8 8 6 8 9 9 9 10 9 8 7 8 10 11 10 8 8 8 8 8 10 10 9 8 7 7 7 7 7 6 6 6 6 6 5 4 3 3 3 3 4
4 4 2 4 5 6 7 10 11 11 9 9 7 8 8 7 6 7 8 9 9 9 10 10 10 9 9 9 8 8 7 7 7 7 7 7 6 5 5 5 4 3 4 4
4 6 3 4 6 2 7 11 13 9 9 10 12 11 5 6 9 10 10 9 9 9 9 9 10 10 10 10 9 9 9 7 7 7 7 7 7 6 6 5 4 5 5 4
8 7 4 2 1 6 10 8 10 12 11 11 9 9 11 11 10 9 9 10 9 9 8 8 8 8 8 8 8 8 7 7 7 7 7 7 7 7 6 5 6 6 5 5
7 8 5 3 3 8 10 8 8 10 10 10 12 10 10 7 5 1 6 8 9 8 8 7 7 6 6 7 7 7 7 6 6 7 7 8 8 7 7 7 7 6 5 6
5 6 6 4 3 6 10 9 5 7 5 7 12 12 10 10 6 6 6 7 7 7 6 6 5 5 5 5 7 7 6 5 6 7 7 7 7 7 8 8 8 6 5 7
3 3 5 6 5 8 10 6 5 6 9 6 11 12 13 11 9 7 8 8 7 7 6 7 7 5 4 5 7 6 4 3 5 5 4 4 5 7 8 7 6 6 6 6
9 7 7 6 5 9 8 5 8 9 4 4 8 10 11 9 8 9 10 9 8 7 7 7 7 5 3 5 7 5 2 3 2 1 1 2 3 4 4 5 6 6 6 6
8 10 8 10 10 9 7 10 9 6 6 6 8 8 11 11 10 9 9 9 8 8 7 6 8 6 4 4 5 4 1 1 0 1 1 3 3 3 3 4 5 5 4 5
5 3 3 5 9 8 8 7 6 8 8 8 9 11 12 12 11 10 10 8 7 6 7 6 8 8 5 5 5 4 2 2 3 3 3 3 4 4 4 3 3 4 4 4
6 2 2 5 8 6 6 7 8 7 7 8 9 10 13 14 11 11 10 9 8 7 6 7 8 8 6 6 6 5 5 4 5 4 4 4 4 4 5 4 4 4 4 4
6 6 5 7 8 6 9 10 8 8 10 11 11 10 10 12 13 11 11 9 9 9 8 9 9 9 7 6 6 6 5 5 5 5 4 4 4 4 4 4 5 6 5 7
Wind_Direction
160 128 173 185 172 165 174 179 203 227 197 188 226 238 210 203 197 194 196 185 179 172 169 161 154 141 127 114 111 111 94 80 66 38 15 358 343 335 343 341 352 355 355 353
92 177 183 152 153 156 169 166 208 249 209 194 229 244 221 197 198 193 185 177 171 155 156 158 150 144 138 130 122 118 115 114 95 86 275 274 293 300 309 327 341 347 347 344
153 188 157 151 162 151 156 175 190 205 204 230 232 315 242 206 196 196 185 174 163 162 166 166 157 154 145 141 146 140 141 134 123 83 37 9 6 352 350 343 338 326 334 339
154 186 154 158 178 156 186 208 188 175 131 260 180 254 274 207 189 196 186 171 165 163 164 165 161 161 161 165 160 152 155 158 163 109 77 56 12 327 298 301 316 323 333 338
181 172 152 161 193 166 189 200 171 145 135 323 270 168 281 175 196 210 200 184 171 166 168 169 169 171 172 171 168 168 165 182 200 168 140 133 252 275 301 321 338 339 336 337
182 193 165 174 178 168 155 66 43 51 69 313 235 167 246 212 205 200 198 188 174 169 169 169 170 165 170 176 175 174 174 201 220 208 141 157 200 272 338 334 337 335 332 330
43 13 154 137 111 65 87 84 37 3 6 261 239 170 237 232 202 183 183 185 180 172 168 168 171 175 179 184 190 185 184 204 217 211 198 186 194 192 226 279 309 322 322 316
124 247 221 178 164 169 157 132 152 191 224 279 317 216 256 271 175 159 165 173 175 179 179 180 183 184 188 193 194 189 193 205 210 212 219 206 197 193 228 253 264 282 281 286
157 237 282 169 142 139 134 151 169 146 206 260 298 334 334 0 155 160 170 175 186 190 190 189 188 188 191 195 199 196 194 202 207 211 210 203 221 219 238 263 273 283 292 300
143 156 259 23 61 59 143 145 99 121 162 284 304 239 227 218 216 210 201 199 204 199 193 189 188 192 194 198 201 194 192 196 202 204 208 203 221 233 240 252 282 291 307 319
128 139 281 32 201 204 164 146 115 125 156 163 246 262 225 200 203 206 214 211 206 199 193 191 193 195 192 193 193 193 196 192 195 200 205 204 226 232 231 242 269 279 303 320
130 121 188 252 273 198 177 182 147 154 218 173 188 265 268 192 195 194 207 209 204 198 193 190 190 190 190 193 195 195 195 192 199 201 201 207 212 206 218 247 268 281 304 316
125 110 80 352 336 327 204 185 158 139 131 162 181 264 298 205 200 200 197 198 194 190 186 184 185 191 196 200 201 198 195 197 201 197 198 206 213 209 222 240 260 283 298 313
114 122 161 188 212 210 221 218 177 141 167 212 221 243 250 214 214 219 211 200 191 188 183 183 192 201 205 204 201 199 201 201 197 193 194 204 216 213 216 224 240 257 274 291
115 165 205 224 231 204 214 219 201 186 187 190 225 220 227 214 209 209 203 195 186 190 192 192 197 203 206 206 205 202 203 202 193 187 198 212 216 212 211 223 238 255 272 278
119 164 214 277 258 229 234 229 213 210 200 207 219 241 240 214 183 188 192 187 189 196 199 199 198 198 201 203 202 201 204 203 190 190 205 211 210 211 217 228 237 254 268 278
155 152 153 265 290 331 261 225 208 210 208 192 214 227 197 174 189 193 194 190 193 198 198 195 196 199 200 201 197 198 203 195 190 199 210 212 211 217 226 231 234 247 254 261
153 143 150 226 9 235 245 235 202 207 219 200 198 197 183 191 198 196 184 181 190 190 187 188 192 197 202 200 195 196 189 186 194 205 215 216 214 222 229 230 240 247 246 253
154 144 144 156 231 274 286 264 193 190 235 210 193 191 188 162 114 229 202 176 179 182 180 184 185 185 187 190 187 175 180 188 199 214 222 223 217 222 229 234 243 244 244 253
102 113 131 144 195 249 255 267 195 133 249 228 185 179 165 137 151 228 208 165 160 158 160 162 156 144 155 178 163 159 177 188 216 229 231 230 219 218 227 235 241 241 237 249
150 130 156 175 216 263 257 265 115 147 235 227 180 172 164 174 191 187 162 154 151 147 146 137 128 129 151 151 136 139 149 206 238 238 236 237 232 231 235 241 244 245 248 257
183 180 190 165 197 252 248 168 181 212 228 185 174 169 166 171 154 147 151 152 149 142 137 131 122 118 116 128 129 129 160 251 244 216 231 257 261 259 257 251 261 259 255 262
199 194 188 188 211 232 218 205 217 185 180 179 166 166 151 147 154 158 157 155 153 149 144 133 127 114 90 92 114 117 314 312 72 63 321 304 306 299 292 277 278 282 269 260
266 190 169 250 265 259 242 224 201 188 185 177 164 157 154 157 162 161 159 158 155 151 145 135 124 115 98 77 76 76 29 45 74 52 6 351 343 328 321 308 291 286 282 275
242 206 218 260 279 306 286 240 210 190 167 157 158 164 164 158 161 162 161 159 153 144 138 132 128 121 108 87 69 49 39 57 66 50 25 5 354 340 331 324 303 291 275 262
217 195 199 239 245 225 247 246 221 191 186 176 166 165 169 165 163 160 159 156 148 141 132 124 120 118 110 92 69 44 37 58 69 51 24 6 354 345 340 334 333 326 323 332
Height
1495 1505 1512 1512 1511 1514 1518 1522 1525 1520 1514 1519 1521 1520 1517 1517 1519 1519 1520 1521 1522 1524 1526 1527 1528 1527 1527 1526 1525 1524 1523 1521 1519 1517 1515 1514 1512 1511 1509 1508 1506 1505 1503 1501
1500 1506 1504 1504 1507 1510 1514 1521 1523 1517 1512 1516 1519 1517 1513 1513 1514 1516 1517 1519 1520 1522 1524 1525 1526 1526 1525 1525 1524 1523 1521 1520 1518 1516 1515 1513 1512 1510 1509 1507 1506 1504 1502 1500
1502 1502 1500 1504 1508 1512 1516 1519 1519 1518 1512 1513 1517 1521 1516 1512 1513 1515 1516 1517 1517 1519 1521 1523 1524 1524 1524 1524 1523 1522 1521 1519 1518 1516 1515 1513 1512 1510 1508 1507 1505 1503 1501 1499
1501 1498 1500 1504 1508 1510 1517 1509 1510 1512 1521 1527 1521 1537 1520 1514 1514 1514 1514 1515 1516 1517 1519 1521 1522 1522 1523 1522 1522 1521 1520 1519 1517 1516 1514 1513 1511 1509 1508 1506 1504 1502 1501 1499
1501 1498 1500 1505 1504 1504 1508 1503 1506 1510 1519 1527 1524 1533 1527 1516 1517 1513 1512 1513 1514 1515 1517 1519 1520 1521 1521 1521 1521 1520 1519 1518 1517 1515 1514 1512 1511 1509 1508 1506 1504 1502 1500 1498
1496 1495 1496 1498 1497 1499 1501 1507 1512 1521 1528 1539 1525 1532 1528 1519 1511 1509 1509 1510 1512 1514 1516 1517 1519 1519 1520 1520 1520 1519 1518 1517 1516 1515 1513 1512 1510 1509 1507 1505 1503 1501 1499 1497
1501 1497 1494 1495 1500 1501 1506 1522 1539 1539 1548 1541 1521 1525 1522 1506 1502 1503 1505 1508 1510 1512 1514 1515 1516 1517 1518 1518 1518 1518 1517 1516 1515 1514 1513 1511 1510 1508 1506 1504 1502 1500 1498 1496
1512 1512 1498 1495 1499 1504 1507 1519 1539 1546 1547 1538 1520 1523 1514 1502 1500 1501 1503 1506 1508 1510 1512 1513 1514 1515 1516 1517 1517 1517 1516 1515 1514 1513 1512 1511 1509 1508 1506 1504 1502 1500 1498 1496
1510 1511 1496 1493 1493 1497 1507 1515 1518 1532 1532 1537 1531 1520 1510 1504 1504 1503 1504 1505 1507 1508 1509 1511 1512 1513 1514 1515 1515 1515 1515 1514 1513 1512 1511 1510 1508 1507 1505 1503 1501 1499 1497 1495
1498 1507 1498 1494 1494 1496 1501 1508 1522 1530 1539 1543 1531 1526 1523 1509 1506 1504 1504 1504 1504 1506 1507 1509 1510 1511 1512 1513 1513 1513 1513 1513 1512 1511 1510 1509 1507 1506 1504 1502 1500 1498 1496 1494
1494 1506 1505 1500 1501 1504 1503 1506 1518 1530 1534 1542 1540 1529 1501 1500 1499 1500 1500 1500 1501 1503 1504 1506 1508 1509 1510 1511 1511 1512 1512 1511 1511 1510 1509 1508 1506 1505 1503 1501 1499 1497 1495 1493
1493 1506 1514 1506 1498 1495 1498 1503 1514 1527 1528 1533 1539 1526 1492 1492 1493 1495 1496 1497 1499 1500 1502 1504 1506 1507 1508 1509 1510 1510 1510 1510 1509 1509 1508 1506 1505 1503 1502 1500 1498 1496 1494 1492
1491 1506 1521 1519 1512 1500 1498 1499 1506 1515 1525 1532 1535 1519 1492 1492 1493 1493 1494 1495 1496 1498 1500 1502 1504 1505 1506 1507 1508 1508 1508 1508 1508 1507 1506 1505 1504 1502 1500 1499 1497 1495 1493 1491
1487 1502 1513 1518 1511 1503 1500 1497 1498 1510 1522 1523 1518 1509 1495 1493 1492 1492 1492 1493 1494 1496 1497 1499 1501 1502 1504 1505 1505 1506 1506 1506 1506 1506 1505 1504 1503 1501 1499 1497 1496 1494 1492 1490
1487 1499 1498 1498 1494 1495 1495 1493 1494 1501 1506 1512 1504 1499 1492 1488 1488 1488 1489 1491 1492 1493 1495 1496 1498 1500 1501 1502 1503 1504 1504 1504 1504 1504 1503 1502 1501 1500 1498 1496 1495 1493 1491 1489
1487 1494 1494 1494 1488 1490 1491 1489 1489 1491 1493 1496 1495 1493 1483 1482 1484 1486 1487 1488 1489 1491 1492 1494 1495 1497 1498 1499 1501 1501 1502 1502 1503 1502 1502 1501 1500 1499 1497 1496 1494 1492 1490 1488
1489 1493 1500 1504 1493 1490 1496 1484 1484 1485 1482 1485 1491 1485 1480 1482 1482 1483 1484 1485 1486 1488 1489 1491 1492 1494 1495 1497 1498 1499 1500 1500 1501 1500 1500 1499 1498 1497 1496 1494 1493 1491 1489 1487
1487 1494 1503 1505 1499 1506 1486 1467 1469 1472 1472 1472 1472 1472 1474 1476 1477 1479 1481 1482 1483 1485 1487 1488 1490 1491 1493 1494 1496 1497 1498 1498 1498 1498 1498 1497 1497 1495 1494 1493 1491 1489 1487 1485
1477 1489 1501 1507 1506 1498 1478 1464 1463 1470 1470 1463 1465 1467 1470 1473 1476 1478 1479 1480 1481 1483 1485 1486 1488 1489 1491 1492 1493 1495 1495 1496 1496 1496 1496 1495 1494 1493 1492 1491 1489 1487 1485 1484
1479 1483 1496 1504 1502 1501 1477 1457 1454 1461 1469 1457 1458 1462 1467 1471 1480 1477 1476 1478 1479 1481 1483 1484 1486 1487 1489 1490 1491 1492 1493 1494 1494 1494 1493 1492 1492 1490 1489 1488 1486 1485 1483 1481
1484 1488 1495 1500 1500 1489 1464 1455 1456 1474 1469 1452 1454 1457 1461 1464 1467 1469 1472 1475 1477 1479 1481 1482 1484 1485 1487 1488 1489 1490 1491 1491 1491 1491 1490 1490 1488 1487 1486 1485 1483 1482 1480 1478
1482 1489 1493 1497 1499 1488 1454 1455 1458 1456 1449 1449 1451 1453 1457 1460 1463 1467 1470 1473 1475 1477 1479 1481 1482 1483 1485 1486 1487 1488 1488 1488 1488 1488 1487 1486 1485 1484 1482 1481 1479 1478 1476 1474
1473 1470 1471 1473 1469 1452 1448 1448 1447 1447 1447 1448 1449 1451 1455 1458 1461 1465 1468 1471 1473 1475 1477 1479 1480 1481 1483 1484 1484 1485 1485 1485 1485 1484 1483 1482 1481 1480 1478 1477 1475 1473 1472 1470
1463 1459 1463 1463 1455 1447 1444 1444 1445 1445 1446 1446 1448 1450 1453 1456 1459 1462 1465 1468 1470 1473 1475 1476 1478 1479 1480 1481 1482 1482 1482 1482 1481 1481 1480 1478 1477 1475 1474 1472 1471 1469 1467 1465
1458 1457 1459 1458 1450 1446 1443 1442 1442 1443 1444 1445 1447 1449 1451 1453 1456 1459 1462 1465 1467 1470 1472 1474 1475 1476 1477 1478 1479 1479 1479 1479 1478 1477 1476 1474 1473 1471 1469 1468 1466 1464 1463 1461
1452 1453 1456 1455 1446 1446 1442 1440 1440 1440 1440 1442 1444 1446 1448 1450 1453 1456 1458 1461 1464 1466 1469 1470 1472 1473 1474 1475 1476 1476 1476 1475 1474 1473 1472 1470 1469 1467 1465 1464 1462 1461 1460 1458